• In Moldova, Republic
  • List of Countries
  • For 7 days
  • Water Temperature
  • Satellite Maps
  • Weather Map
  • Weather Widgets
  • user-avatar
    Login

    Hourly Weather Ischgl

    Today, 22 July, Saturday

    Time Temperature Precipitation Wind Pressure Humidity
    00:00 +7°C° 0.4 mm 2 mps 576 mmHg 90%
    01:00 +7°C° 0 mm 2 mps 576 mmHg 91%
    02:00 +7°C° 0.3 mm 2 mps 576 mmHg 91%
    03:00 +7°C° 0.3 mm 2 mps 576 mmHg 92%
    04:00 +7°C° 0.3 mm 1 mps 576 mmHg 92%
    05:00 +8°C° 0.1 mm 1 mps 576 mmHg 90%
    06:00 +9°C° 0.1 mm 1 mps 577 mmHg 87%
    07:00 +9°C° 0.1 mm 1 mps 577 mmHg 85%
    08:00 +11°C° 0 mm 1 mps 578 mmHg 78%
    09:00 +13°C° 0 mm 1 mps 579 mmHg 71%
    10:00 +14°C° 0 mm 1 mps 580 mmHg 63%
    11:00 +15°C° 0.2 mm 1 mps 580 mmHg 63%
    12:00 +15°C° 0.2 mm 1 mps 580 mmHg 62%
    13:00 +16°C° 0.2 mm 1 mps 580 mmHg 61%
    14:00 +15°C° 0.8 mm 1 mps 580 mmHg 63%
    15:00 +15°C° 0.8 mm 1 mps 580 mmHg 65%
    16:00 +15°C° 0.8 mm 2 mps 580 mmHg 67%
    17:00 +14°C° 1.2 mm 1 mps 579 mmHg 73%
    18:00 +13°C° 1.2 mm 1 mps 579 mmHg 79%
    19:00 +12°C° 1.2 mm 1 mps 578 mmHg 85%
    20:00 +11°C° 1 mm 1 mps 578 mmHg 87%
    21:00 +10°C° 1 mm 1 mps 578 mmHg 90%
    22:00 +9°C° 1 mm 1 mps 577 mmHg 92%
    23:00 +9°C° 0.9 mm 1 mps 577 mmHg 93%

    Tomorrow, 23 July, Sunday

    Time Temperature Precipitation Wind Pressure Humidity
    00:00 +9°C° 0.9 mm 1 mps 577 mmHg 93%
    01:00 +9°C° 0.9 mm 1 mps 578 mmHg 93%
    02:00 +9°C° 0.7 mm 1 mps 577 mmHg 93%
    03:00 +8°C° 0.7 mm 1 mps 577 mmHg 94%
    04:00 +8°C° 0.7 mm 1 mps 577 mmHg 94%
    05:00 +9°C° 0 mm 1 mps 578 mmHg 91%
    06:00 +9°C° 0 mm 1 mps 578 mmHg 88%
    07:00 +10°C° 0 mm 1 mps 579 mmHg 86%
    08:00 +11°C° 0.1 mm 1 mps 579 mmHg 81%
    09:00 +12°C° 0.1 mm 1 mps 579 mmHg 76%
    10:00 +13°C° 0.1 mm 1 mps 580 mmHg 70%
    11:00 +13°C° 0.4 mm 1 mps 580 mmHg 72%
    12:00 +13°C° 0.4 mm 2 mps 580 mmHg 74%
    13:00 +13°C° 0.4 mm 2 mps 579 mmHg 76%
    14:00 +12°C° 0.8 mm 2 mps 579 mmHg 79%
    15:00 +12°C° 0.8 mm 2 mps 579 mmHg 82%
    16:00 +12°C° 0.8 mm 2 mps 578 mmHg 85%
    17:00 +10°C° 0.5 mm 2 mps 578 mmHg 87%
    18:00 +11°C° 0.5 mm 1 mps 578 mmHg 89%
    19:00 +10°C° 0.5 mm 1 mps 578 mmHg 91%
    20:00 +9°C° 0.2 mm 1 mps 577 mmHg 93%
    21:00 +9°C° 0.2 mm 1 mps 577 mmHg 94%
    22:00 +8°C° 0.2 mm 1 mps 577 mmHg 96%
    23:00 +8°C° 0.2 mm 1 mps 577 mmHg 96%

    Day after tomorrow, 24 July, Monday

    Time Temperature Precipitation Wind Pressure Humidity
    00:00 +7°C° 0.2 mm 1 mps 576 mmHg 97%
    01:00 +7°C° 0.2 mm 1 mps 576 mmHg 97%
    02:00 +7°C° 0.6 mm 1 mps 575 mmHg 97%
    03:00 +7°C° 0.6 mm 1 mps 574 mmHg 97%
    04:00 +6°C° 0.6 mm 1 mps 574 mmHg 97%
    05:00 +7°C° 0.5 mm 1 mps 574 mmHg 94%
    06:00 +8°C° 0.5 mm 1 mps 574 mmHg 92%
    07:00 +9°C° 0.5 mm 1 mps 574 mmHg 90%
    08:00 +9°C° 0.9 mm 1 mps 574 mmHg 89%
    09:00 +9°C° 0.9 mm 1 mps 574 mmHg 87%
    10:00 +9°C° 0.9 mm 1 mps 573 mmHg 86%
    11:00 +8°C° 1.7 mm 2 mps 573 mmHg 87%
    12:00 +8°C° 1.7 mm 2 mps 573 mmHg 88%
    13:00 +7°C° 1.7 mm 2 mps 573 mmHg 89%
    14:00 +7°C° 2.1 mm 2 mps 572 mmHg 92%
    15:00 +6°C° 2.1 mm 2 mps 572 mmHg 94%
    16:00 +5°C° 2.1 mm 2 mps 572 mmHg 96%
    17:00 +5°C° 1.7 mm 2 mps 572 mmHg 96%
    18:00 +5°C° 1.7 mm 2 mps 572 mmHg 96%
    19:00 +3°C° 1.7 mm 3 mps 572 mmHg 97%
    20:00 +3°C° 0.4 mm 3 mps 572 mmHg 96%
    21:00 +3°C° 0.4 mm 2 mps 571 mmHg 96%
    22:00 +3°C° 0.4 mm 2 mps 571 mmHg 96%
    23:00 +2°C° 0.1 mm 2 mps 571 mmHg 96%

    25 July, Tuesday

    Time Temperature Precipitation Wind Pressure Humidity
    00:00 +2°C° 0.1 mm 2 mps 571 mmHg 96%
    01:00 +1°C° 0.1 mm 2 mps 571 mmHg 96%
    02:00 +1°C° 0.1 mm 2 mps 570 mmHg 96%
    03:00 +1°C° 0.1 mm 2 mps 570 mmHg 96%
    04:00 +1°C° 0.1 mm 2 mps 570 mmHg 95%
    05:00 +1°C° 0.2 mm 2 mps 570 mmHg 94%
    06:00 +2°C° 0.2 mm 2 mps 570 mmHg 92%
    07:00 +2°C° 0.2 mm 2 mps 571 mmHg 91%
    08:00 +3°C° 0.3 mm 2 mps 571 mmHg 87%
    09:00 +4°C° 0.3 mm 2 mps 571 mmHg 83%
    10:00 +5°C° 0.3 mm 2 mps 572 mmHg 79%
    11:00 +6°C° 0.3 mm 2 mps 572 mmHg 73%
    12:00 +7°C° 0.3 mm 3 mps 573 mmHg 68%
    13:00 +8°C° 0.3 mm 3 mps 573 mmHg 62%
    14:00 +8°C° 0.3 mm 3 mps 573 mmHg 61%
    15:00 +8°C° 0.3 mm 3 mps 573 mmHg 61%
    16:00 +8°C° 0.3 mm 3 mps 573 mmHg 60%
    17:00 +7°C° 0.2 mm 3 mps 572 mmHg 65%
    18:00 +6°C° 0.2 mm 2 mps 572 mmHg 69%
    19:00 +6°C° 0.2 mm 2 mps 572 mmHg 73%
    20:00 +4°C° 0.1 mm 2 mps 571 mmHg 79%
    21:00 +3°C° 0.1 mm 2 mps 571 mmHg 85%
    22:00 +2°C° 0.1 mm 2 mps 570 mmHg 90%
    23:00 +1°C° 0 mm 2 mps 570 mmHg 91%

    26 July, Wednesday

    Time Temperature Precipitation Wind Pressure Humidity
    00:00 +1°C° 0 mm 2 mps 570 mmHg 92%
    01:00 +1°C° 0 mm 1 mps 569 mmHg 92%
    02:00 -1°C° 0 mm 2 mps 569 mmHg 92%
    03:00 -1°C° 0 mm 2 mps 569 mmHg 92%
    04:00 -1°C° 0 mm 2 mps 569 mmHg 92%
    05:00 +1°C° 0.1 mm 2 mps 570 mmHg 88%
    06:00 +2°C° 0.1 mm 2 mps 570 mmHg 83%
    07:00 +3°C° 0.1 mm 2 mps 571 mmHg 78%
    08:00 +5°C° 0.1 mm 2 mps 571 mmHg 74%
    09:00 +6°C° 0.1 mm 2 mps 572 mmHg 70%
    10:00 +7°C° 0.1 mm 2 mps 573 mmHg 65%
    11:00 +8°C° 0.2 mm 2 mps 573 mmHg 62%
    12:00 +8°C° 0.2 mm 3 mps 573 mmHg 60%
    13:00 +9°C° 0.2 mm 3 mps 574 mmHg 57%
    14:00 +9°C° 0.2 mm 3 mps 573 mmHg 60%
    15:00 +8°C° 0.2 mm 3 mps 573 mmHg 62%
    16:00 +8°C° 0.2 mm 3 mps 573 mmHg 65%
    17:00 +7°C° 0.2 mm 3 mps 573 mmHg 71%
    18:00 +6°C° 0.2 mm 2 mps 572 mmHg 77%
    19:00 +5°C° 0.2 mm 2 mps 572 mmHg 84%
    20:00 +4°C° 0.1 mm 2 mps 572 mmHg 86%
    21:00 +3°C° 0.1 mm 2 mps 572 mmHg 89%
    22:00 +2°C° 0.1 mm 2 mps 572 mmHg 92%
    23:00 +2°C° 0.2 mm 2 mps 572 mmHg 91%

    27 July, Thursday

    Time Temperature Precipitation Wind Pressure Humidity
    00:00 +2°C° 0.2 mm 2 mps 572 mmHg 91%
    01:00 +2°C° 0.2 mm 2 mps 572 mmHg 90%
    02:00 +2°C° 0.2 mm 2 mps 572 mmHg 89%
    03:00 +2°C° 0.2 mm 2 mps 572 mmHg 89%
    04:00 +2°C° 0.2 mm 2 mps 571 mmHg 88%
    05:00 +3°C° 0.1 mm 2 mps 572 mmHg 86%
    06:00 +3°C° 0.1 mm 2 mps 572 mmHg 83%
    07:00 +5°C° 0.1 mm 1 mps 573 mmHg 81%
    08:00 +6°C° 0.1 mm 2 mps 573 mmHg 73%
    09:00 +8°C° 0.1 mm 2 mps 574 mmHg 66%
    10:00 +10°C° 0.1 mm 2 mps 575 mmHg 59%
    11:00 +12°C° 0.1 mm 2 mps 576 mmHg 54%
    12:00 +12°C° 0.1 mm 2 mps 576 mmHg 49%
    13:00 +13°C° 0.1 mm 2 mps 576 mmHg 44%
    14:00 +13°C° 0.1 mm 2 mps 576 mmHg 47%
    15:00 +13°C° 0.1 mm 2 mps 576 mmHg 51%
    16:00 +12°C° 0.1 mm 2 mps 576 mmHg 54%
    17:00 +10°C° 0.5 mm 2 mps 575 mmHg 65%
    18:00 +8°C° 0.5 mm 2 mps 575 mmHg 76%
    19:00 +8°C° 0.5 mm 1 mps 575 mmHg 86%
    20:00 +8°C° 1.1 mm 1 mps 575 mmHg 89%
    21:00 +7°C° 1.1 mm 1 mps 575 mmHg 92%
    22:00 +6°C° 1.1 mm 1 mps 576 mmHg 95%
    23:00 +6°C° 0.5 mm 1 mps 575 mmHg 96%
    Show more